Regional Weather Roundup
Issued by NWS

Home | Current Version | Previous Version | Text Only | Print | Product List | Glossary Off
Versions: 1 2 3 4 5 6 7 8 9 10 11 12 13 14 15 16 17 18 19 20 21 22 23 24 25 26 27 28 29 30 31 32 33 34 35 36 37 38 39 40 41 42 43 44 45 46 47 48 49 50

000
ASUS43 KDTX 141401
RWRMI
MICHIGAN HOURLY REGIONAL WEATHER ROUNDUP
NATIONAL WEATHER SERVICE DETROIT/PONTIAC MI
900 AM EST SUN FEB 14 2016

NOTE: "FAIR" INDICATES FEW OR NO CLOUDS BELOW 12,000 FEET WITH NO
SIGNIFICANT WEATHER AND/OR OBSTRUCTION TO VISIBILITY.

MIZ047>049-052>055-059>063-066>070-074>076-081>083-141500-
SOUTHEAST LOWER MICHIGAN

CITY           SKY/WX    TMP DP  RH WIND       PRES   REMARKS
ADRIAN         CLOUDY     5   2  87 CALM      30.46R
ALMA           SUNNY      9   4  80 CALM      30.44S
ANN ARBOR      CLOUDY     1  -1  91 CALM      30.45R
BAD AXE        SUNNY     -2  -6  84 CALM      30.44S
DETROIT CITY   SUNNY      8   5  87 CALM      30.47S
DETROIT        MOSUNNY    6   5  95 CALM      30.48R
FLINT          CLOUDY    -2  -6  83 S3        30.45S
GROSSE ILE     SUNNY      9   5  85 CALM      30.46S
HILLSDALE      CLOUDY     8   1  72 SE5       30.39S WCI  -1
HOWELL         CLOUDY    -1  -4  86 CALM      30.43S

CITY           SKY/WX    TMP DP  RH WIND       PRES   REMARKS
JACKSON        CLOUDY     3  -2  79 SE6       30.42S WCI  -8
LAMBERTVILLE   SUNNY      8   4  86 CALM      30.48R
LANSING        CLOUDY     7   2  80 CALM      30.44S
LAPEER         FAIR      -6 -10  86 CALM      30.44S
MASON          CLOUDY    -1  -4  85 CALM      30.43S
MONROE         MOSUNNY    4   0  83 CALM      30.47R
MT. CLEMENS    MOSUNNY    4   0  85 CALM      30.46R
PONTIAC        CLOUDY     0  -1  96 CALM      30.42S
PORT HOPE        N/A      9   0  67 SW7       30.42S WCI  -2
PORT HURON     CLOUDY    -4  -6  92 CALM      30.47S
TRI CITIES     CLOUDY     6   0  76 S5        30.45S WCI  -3
MIDLAND        CLOUDY     7   2  82 CALM      30.44S
TROY           CLOUDY     8   3  80 CALM      30.47S
SAGINAW HB     CLOUDY     1  -2  85 SE5       30.46S WCI  -8
$$
MIZ043>046-050>051-056>058-064>065-071>073-077>080-141500-
SOUTHWEST LOWER MICHIGAN

CITY           SKY/WX    TMP DP  RH WIND       PRES   REMARKS
BATTLE CREEK   MOSUNNY    6  -1  73 SE6       30.41S WCI  -4
BENTON HARBOR  CLOUDY     8   3  80 SE7       30.42R WCI  -3
BIG RAPIDS     CLOUDY    -1  -5  85 CALM      30.39S
COLDWATER      CLOUDY     3  -1  83 CALM      30.42S
FREMONT        CLOUDY    10  -2  56 SE6       30.40S WCI   1
HOLLAND        CLOUDY     7  -3  64 SE8       30.42S WCI  -6
GRAND RAPIDS   CLOUDY     7   1  76 SE5       30.42F WCI  -2
IONIA          FAIR       8   1  73 SE5       30.41F WCI  -1
KALAMAZOO      CLOUDY     5  -2  72 SE5       30.42R WCI  -4
LUDINGTON      CLOUDY    12   2  63 SE8       30.39S WCI   1
MARSHALL       CLOUDY     6   0  78 E3        30.42R
MOUNT PLEASANT PTSUNNY   11   5  75 CALM      30.42S
MUSKEGON       CLOUDY    12   0  58 SE13      30.42S WCI  -3
SOUTH HAVEN    CLOUDY     8   1  72 SE5       30.42R WCI  -1
$$
MIZ016>042-141500-
NORTHERN LOWER MICHIGAN

CITY           SKY/WX    TMP DP  RH WIND       PRES   REMARKS
ALPENA         CLOUDY    -5 -10  79 CALM      30.43S HAZE
BEAVER ISLAND  LGT SNOW  13  10  88 E9        30.35F WCI   1
BELLAIRE       CLOUDY    12   5  74 CALM      30.39F
CADILLAC       CLOUDY     4  -2  76 CALM      30.34S
CHARLEVOIX     CLOUDY    11   7  82 SE7       30.39S WCI   0
FRANKFORT      CLOUDY    13   3  64 SE7       30.37F WCI   3
GAYLORD        CLOUDY     6   2  83 S5        30.32F WCI  -3
GRAYLING       CLOUDY     2  -2  85 CALM      30.36S
HARBOR SPRINGS CLOUDY     3  -1  83 E5        30.37F WCI  -6
HOUGHTON LAKE  CLOUDY     5   0  79 CALM      30.37S
MANISTEE       CLOUDY    12   0  57 SE7       30.38S WCI   2
OSCODA         CLOUDY    -6 -12  75 CALM      30.43F
PELLSTON       CLOUDY    -1  -5  82 CALM      30.39F
ROGERS CITY    MOSUNNY    2  -3  81 S6        30.43S WCI  -9
TRAVERSE CITY  CLOUDY    13   3  64 CALM      30.38S
$$
MIZ007>008-015-141500-
EASTERN UPPER MICHIGAN

CITY           SKY/WX    TMP DP  RH WIND       PRES   REMARKS
KINROSS        CLOUDY    -2  -8  78 E6        30.38F WCI -14
MACKINAC ISLAN CLOUDY     9   5  82 S8        30.37F WCI  -3
NEWBERRY       LGT SNOW  -6  -8  89 SE5       30.34F WCI -16
S. S. MARIE    CLOUDY    -5 -13  68 E6        30.40F WCI -18
$$
MIZ004>006-011>014-085-141500-
CENTRAL UPPER MICHIGAN

CITY           SKY/WX    TMP DP  RH WIND       PRES   REMARKS
MANISTIQUE     CLOUDY    -6 -11  81 CALM      30.34F
ESCANABA       CLOUDY   -11 N/A N/A CALM      30.34F
MENOMINEE      CLOUDY    -8 -11  84 CALM      30.34F
SAWYER-GWINN   CLEAR    -22 -27  76 NW5       30.25F WCI -36
$$
MIZ001>003-009>011-084-141500-
WESTERN UPPER MICHIGAN

CITY           SKY/WX    TMP DP  RH WIND       PRES   REMARKS
IRON MOUNTAIN  CLOUDY   -17 -24  70 CALM      30.26F
HOUGHTON       CLOUDY    -3  -8  79 S5        30.21F WCI -13
COPPER HARBOR    N/A      6   2  83 SW10      30.25F WCI  -9
IRONWOOD       CLEAR      1 -13  51 SE5       30.13F WCI  -8
$$

ABBREVIATIONS USED IN REMARKS
   TC - TEMPERATURE IN CELSIUS
  WCI - WIND CHILL INDEX
   HX - HEAT INDEX
  VSB - VISIBILITY




USA.gov is the U.S. government's official web portal to all federal, state and local government web resources and services.